Location: Hilton Head Island
(32.2163°N, 80.7526°W)
Time: 18:07:42
(UTC-04:00)

Altair - Pass Details

Date: 24 February 2026
Orbit: 1502 x 1682 km, 47.2° (Epoch: 10 March)

Event Time Altitude Azimuth Distance (km) Brightness Sun altitude
Exits shadow 05:33:41 18° 303° (WNW) 3,101 8.6 -18.2°
Maximum altitude 05:39:26 32° 354° (N) 2,380 8.4 -16.9°
Drops below altitude 10° 05:47:39 10° 55° (NE) 3,747 10.3 -15.2°
Sets 05:51:17 0° 65° (ENE) 4,759 11.3 -14.4°
